Weather History for Cumberland, MD

Change the Weather History Date:

Tuesday, July 30, 2013

  Actual Average (KMRB) Record (KMRB)
Temperature  
Mean Temperature 68 °F 74 °F  
Max Temperature 80 °F 85 °F 104 °F (1930)
Min Temperature 55 °F 64 °F 50 °F (1928)
Degree Days  
Heating Degree Days 0 0  
Month to date heating degree days 0  
Since 1 June heating degree days 24  
Since 1 July heating degree days 0  
Cooling Degree Days 2 10  
Month to date cooling degree days 296  
Year to date cooling degree days 536  
Since 1 June cooling degree days 479  
Growing Degree Days 18 (Base 50)    
Moisture  
Dew Point 55 °F    
Average Humidity 65    
Maximum Humidity 94    
Minimum Humidity 36    
Precipitation  
Precipitation 0.00 in 0.13 in 1.62 in (1996)
Month to date precipitation 3.55  
Year to date precipitation 23.04  
Sea Level Pressure  
Sea Level Pressure 30.24 in    
Wind  
Wind Speed 1 mph (NE)    
Max Wind Speed 8 mph    
Max Gust Speed -    
Visibility 10 miles    
Events      
T = Trace of Precipitation, MM = Missing Value Source: NWS Daily Summary

Daily Weather History Graph

Daily Weather History Graph

Search for Another Location

Airport:

Trip Planner

Search our weather history database for the weather conditions in past years. The results will help you decide how hot, cold, wet, or windy it might be!

Date:

Astronomy

Jul. 30, 2013 Rise Set
Actual Time 6:12 AM EDT 8:29 PM EDT
Civil Twilight 5:42 AM EDT 8:59 PM EDT
Nautical Twilight 5:05 AM EDT 9:36 PM EDT
Astronomical Twilight 4:24 AM EDT 10:17 PM EDT
Moon 12:29 AM EDT (7/30) 2:48 PM EDT (7/30)
Length of Visible Light 15h 17m
Length of Day
14h 16m
Last Quarter, 41% of the Moon is Illuminated
Jul 30
Last Quarter
Aug 6
New
Aug 14
First Quarter
Aug 20
Full
Aug 28
Last Quarter

Hourly Weather History & Observations

Time (EDT) Temp. Heat Index Dew Point Humidity Pressure Visibility Wind Dir Wind Speed Gust Speed Precip Events Conditions
12:06 AM 66.2 °F - 55.4 °F 68% 30.24 in 10.0 mi Calm Calm - N/A   Mostly Cloudy
12:26 AM 64.4 °F - 55.4 °F 73% 30.24 in 10.0 mi East 3.5 mph - N/A   Mostly Cloudy
12:46 AM 64.4 °F - 55.4 °F 73% 30.25 in 10.0 mi Calm Calm - N/A   Scattered Clouds
1:06 AM 62.6 °F - 55.4 °F 77% 30.25 in 10.0 mi Calm Calm - N/A   Scattered Clouds
1:26 AM 62.6 °F - 55.4 °F 77% 30.25 in 10.0 mi Calm Calm - N/A   Scattered Clouds
1:46 AM 60.8 °F - 55.4 °F 82% 30.25 in 10.0 mi NNE 3.5 mph - N/A   Clear
2:07 AM 62.6 °F - 55.4 °F 77% 30.25 in 10.0 mi Calm Calm - N/A   Scattered Clouds
2:27 AM 60.8 °F - 55.4 °F 82% 30.25 in 10.0 mi Calm Calm - N/A   Scattered Clouds
2:47 AM 60.8 °F - 55.4 °F 82% 30.25 in 10.0 mi Calm Calm - N/A   Mostly Cloudy
3:07 AM 59.0 °F - 55.4 °F 88% 30.25 in 10.0 mi Calm Calm - N/A   Scattered Clouds
3:27 AM 59.0 °F - 55.4 °F 88% 30.25 in 10.0 mi NNE 3.5 mph - N/A   Mostly Cloudy
3:47 AM 59.0 °F - 55.4 °F 88% 30.25 in 10.0 mi Calm Calm - N/A   Scattered Clouds
4:07 AM 57.2 °F - 55.4 °F 94% 30.25 in 10.0 mi Calm Calm - N/A   Clear
4:27 AM 57.2 °F - 53.6 °F 88% 30.25 in 10.0 mi Calm Calm - N/A   Clear
4:47 AM 59.0 °F - 55.4 °F 88% 30.25 in 10.0 mi North 5.8 mph - N/A   Clear
5:07 AM 59.0 °F - 55.4 °F 88% 30.26 in 10.0 mi Calm Calm - N/A   Clear
5:27 AM 55.4 °F - 53.6 °F 94% 30.27 in 0.5 mi Calm Calm - N/A   Mostly Cloudy
5:47 AM 55.4 °F - 53.6 °F 94% 30.27 in 7.0 mi NE 3.5 mph - N/A   Mostly Cloudy
6:07 AM 55.4 °F - 53.6 °F 94% 30.27 in 10.0 mi Calm Calm - N/A   Scattered Clouds
6:27 AM 55.4 °F - 53.6 °F 94% 30.28 in 10.0 mi Calm Calm - N/A   Clear
6:47 AM 55.4 °F - 53.6 °F 94% 30.29 in 7.0 mi Calm Calm - N/A   Clear
7:07 AM 57.2 °F - 55.4 °F 94% 30.29 in 10.0 mi Calm Calm - N/A   Clear
7:27 AM 59.0 °F - 55.4 °F 88% 30.29 in 10.0 mi Calm Calm - N/A   Clear
7:47 AM 60.8 °F - 55.4 °F 82% 30.29 in 10.0 mi Calm Calm - N/A   Clear
8:07 AM 60.8 °F - 55.4 °F 82% 30.30 in 10.0 mi Calm Calm - N/A   Clear
8:27 AM 62.6 °F - 57.2 °F 82% 30.30 in 10.0 mi Calm Calm - N/A   Clear
8:47 AM 62.6 °F - 55.4 °F 77% 30.30 in 10.0 mi Calm Calm - N/A   Clear
9:07 AM 66.2 °F - 55.4 °F 68% 30.30 in 10.0 mi Calm Calm - N/A   Clear
9:27 AM 66.2 °F - 57.2 °F 73% 30.30 in 10.0 mi Calm Calm - N/A   Clear
9:47 AM 68.0 °F - 57.2 °F 68% 30.30 in 10.0 mi Calm Calm - N/A   Clear
10:07 AM 69.8 °F - 57.2 °F 64% 30.29 in 10.0 mi Calm Calm - N/A   Clear
10:27 AM 69.8 °F - 55.4 °F 60% 30.29 in 10.0 mi SSE 3.5 mph - N/A   Clear
10:47 AM 71.6 °F - 51.8 °F 50% 30.28 in 10.0 mi Calm Calm - N/A   Clear
11:08 AM 73.4 °F - 51.8 °F 47% 30.28 in 10.0 mi Calm Calm - N/A   Clear
11:28 AM 73.4 °F - 53.6 °F 50% 30.27 in 10.0 mi Calm Calm - N/A   Scattered Clouds
11:48 AM 75.2 °F - 53.6 °F 47% 30.27 in 10.0 mi Calm Calm - N/A   Clear
12:08 PM 75.2 °F - 53.6 °F 47% 30.26 in 10.0 mi Calm Calm - N/A   Clear
12:28 PM 77.0 °F - 53.6 °F 44% 30.26 in 10.0 mi Calm Calm - N/A   Scattered Clouds
12:48 PM 75.2 °F - 53.6 °F 47% 30.25 in 10.0 mi SSE 3.5 mph - N/A   Scattered Clouds
1:08 PM 77.0 °F - 53.6 °F 44% 30.25 in 10.0 mi Calm Calm - N/A   Scattered Clouds
1:28 PM 78.8 °F - 53.6 °F 42% 30.24 in 10.0 mi SE 5.8 mph - N/A   Scattered Clouds
1:48 PM 77.0 °F - 53.6 °F 44% 30.24 in 10.0 mi Calm Calm - N/A   Scattered Clouds
2:08 PM 78.8 °F - 53.6 °F 42% 30.23 in 10.0 mi NNE 4.6 mph - N/A   Scattered Clouds
2:28 PM 78.8 °F - 53.6 °F 42% 30.22 in 10.0 mi SE 5.8 mph - N/A   Scattered Clouds
2:48 PM 78.8 °F - 51.8 °F 39% 30.22 in 10.0 mi East 5.8 mph - N/A   Scattered Clouds
3:08 PM 80.6 °F - 51.8 °F 37% 30.22 in 10.0 mi ENE 4.6 mph - N/A   Scattered Clouds
3:27 PM 78.8 °F - 50.0 °F 36% 30.22 in 10.0 mi NNW 4.6 mph - N/A   Mostly Cloudy
3:48 PM 78.8 °F - 50.0 °F 36% 30.21 in 10.0 mi Calm Calm - N/A   Scattered Clouds
4:08 PM 80.6 °F - 51.8 °F 37% 30.20 in 10.0 mi North 5.8 mph - N/A   Scattered Clouds
4:28 PM 80.6 °F 80.3 °F 53.6 °F 39% 30.21 in 10.0 mi ENE 4.6 mph - N/A   Scattered Clouds
4:48 PM 78.8 °F - 51.8 °F 39% 30.20 in 10.0 mi ENE 5.8 mph - N/A   Scattered Clouds
5:08 PM 78.8 °F - 53.6 °F 42% 30.20 in 10.0 mi East 8.1 mph - N/A   Mostly Cloudy
5:28 PM 78.8 °F - 53.6 °F 42% 30.20 in 10.0 mi East 5.8 mph - N/A   Scattered Clouds
5:48 PM 78.8 °F - 55.4 °F 44% 30.20 in 10.0 mi East 4.6 mph - N/A   Mostly Cloudy
6:08 PM 77.0 °F - 55.4 °F 47% 30.20 in 10.0 mi ESE 3.5 mph - N/A   Scattered Clouds
6:28 PM 77.0 °F - 55.4 °F 47% 30.20 in 10.0 mi East 3.5 mph - N/A   Scattered Clouds
6:48 PM 77.0 °F - 55.4 °F 47% 30.20 in 10.0 mi Calm Calm - N/A   Scattered Clouds
7:08 PM 75.2 °F - 55.4 °F 50% 30.20 in 10.0 mi Calm Calm - N/A   Clear
7:29 PM 75.2 °F - 55.4 °F 50% 30.20 in 10.0 mi Calm Calm - N/A   Scattered Clouds
7:49 PM 75.2 °F - 55.4 °F 50% 30.20 in 10.0 mi Calm Calm - N/A   Scattered Clouds
8:09 PM 73.4 °F - 59.0 °F 61% 30.20 in 10.0 mi Calm Calm - N/A   Mostly Cloudy
8:29 PM 73.4 °F - 55.4 °F 53% 30.21 in 10.0 mi Calm Calm - N/A   Scattered Clouds
9:09 PM 69.8 °F - 57.2 °F 64% 30.21 in 10.0 mi Calm Calm - N/A   Scattered Clouds
9:29 PM 68.0 °F - 59.0 °F 73% 30.21 in 10.0 mi Calm Calm - N/A   Clear
9:49 PM 68.0 °F - 59.0 °F 73% 30.22 in 10.0 mi North 3.5 mph - N/A   Clear
10:09 PM 68.0 °F - 59.0 °F 73% 30.22 in 10.0 mi North 3.5 mph - N/A   Clear
10:29 PM 68.0 °F - 59.0 °F 73% 30.22 in 10.0 mi North 3.5 mph - N/A   Clear
10:49 PM 68.0 °F - 59.0 °F 73% 30.22 in 10.0 mi NNW 3.5 mph - N/A   Clear
11:09 PM 66.2 °F - 59.0 °F 78% 30.22 in 10.0 mi NNW 3.5 mph - N/A   Clear
11:29 PM 64.4 °F - 59.0 °F 83% 30.22 in 10.0 mi North 3.5 mph - N/A   Clear
11:49 PM 64.4 °F - 59.0 °F 83% 30.22 in 10.0 mi North 4.6 mph - N/A   Clear